Change the Weather History Date:

Saturday, July 12, 2014

  Actual Average Record
Temperature  
Mean Temperature 77 °F 75 °F  
Max Temperature 91 °F 86 °F 93 °F (1993)
Min Temperature 63 °F 64 °F 52 °F (1963)
Degree Days  
Heating Degree Days 0 0  
Month to date heating degree days 0 0  
Since 1 June heating degree days 0 11  
Since 1 July heating degree days 0 0  
Cooling Degree Days 12 10  
Month to date cooling degree days 122 117  
Year to date cooling degree days 552 396  
Since 1 June cooling degree days 418 323  
Growing Degree Days 27 (Base 50)    
Moisture  
Dew Point 62 °F    
Average Humidity 63    
Maximum Humidity 87    
Minimum Humidity 38    
Precipitation  
Precipitation 0.00 in 0.16 in 1.42 in (1948)
Month to date precipitation 0.69 1.78  
Year to date precipitation 16.27 23.07  
Snow  
Snow 0.00 in 0.00 in - ()
Month to date snowfall 0.0 0.0  
Since 1 June snowfall 0.0 0.0  
Since 1 July snowfall 0.0 0.0  
Snow Depth 0.00 in    
Sea Level Pressure  
Sea Level Pressure 30.13 in    
Wind  
Wind Speed 3 mph (WNW)    
Max Wind Speed 13 mph    
Max Gust Speed 18 mph    
Visibility 10 miles    
Events      
T = Trace of Precipitation, MM = Missing Value Source: NWS Daily Summary

Daily Weather History Graph

Daily Weather History Graph

Search for Another Location

Airport or City:

Trip Planner

Search our weather history database for the weather conditions in past years. The results will help you decide how hot, cold, wet, or windy it might be!

Date:

Astronomy

Jul. 12, 2014 Rise Set
Actual Time 6:21 AM EDT 8:49 PM EDT
Civil Twilight 5:51 AM EDT 9:18 PM EDT
Nautical Twilight 5:14 AM EDT 9:55 PM EDT
Astronomical Twilight 4:33 AM EDT 10:36 PM EDT
Moon 8:53 PM EDT (7/12) 6:36 AM EDT (7/12)
Length of Visible Light 15h 27m
Length of Day
14h 27m
Full, 100% of the Moon is Illuminated
Jul 12
Full
Jul 18
Last Quarter
Jul 26
New
Aug 3
First Quarter
Aug 10
Full

Hourly Weather History & Observations

Time (EDT) Temp. Heat Index Dew Point Humidity Pressure Visibility Wind Dir Wind Speed Gust Speed Precip Events Conditions
12:53 AM 66.0 °F - 60.1 °F 81% 30.16 in 10.0 mi Calm Calm - N/A   Scattered Clouds
1:53 AM 66.9 °F - 60.1 °F 79% 30.15 in 10.0 mi Calm Calm - N/A   Clear
2:53 AM 64.9 °F - 61.0 °F 87% 30.14 in 10.0 mi Calm Calm - N/A   Clear
3:53 AM 64.0 °F - 61.0 °F 90% 30.14 in 10.0 mi NE 3.5 mph - N/A   Partly Cloudy
4:53 AM 64.0 °F - 61.0 °F 90% 30.14 in 10.0 mi Calm Calm - N/A   Partly Cloudy
5:53 AM 64.9 °F - 61.0 °F 87% 30.15 in 10.0 mi Calm Calm - N/A   Scattered Clouds
6:53 AM 64.0 °F - 61.0 °F 90% 30.16 in 10.0 mi Calm Calm - N/A   Scattered Clouds
7:53 AM 69.1 °F - 63.0 °F 81% 30.17 in 10.0 mi NE 3.5 mph - N/A   Clear
8:53 AM 73.0 °F - 64.0 °F 73% 30.17 in 9.0 mi Calm Calm - N/A   Scattered Clouds
9:53 AM 78.1 °F - 64.9 °F 64% 30.17 in 10.0 mi Calm Calm - N/A   Clear
10:53 AM 82.0 °F 84.1 °F 66.0 °F 58% 30.17 in 10.0 mi SE 4.6 mph - N/A   Clear
11:53 AM 86.0 °F 87.6 °F 64.9 °F 49% 30.17 in 10.0 mi West 6.9 mph - N/A   Scattered Clouds
1:53 PM 88.0 °F 88.7 °F 63.0 °F 43% 30.15 in 10.0 mi Variable 6.9 mph - N/A   Scattered Clouds
2:53 PM 90.0 °F 90.0 °F 61.0 °F 38% 30.14 in 10.0 mi West 9.2 mph - N/A   Scattered Clouds
3:53 PM 89.1 °F 88.8 °F 60.1 °F 38% 30.12 in 10.0 mi SW 10.4 mph - N/A   Scattered Clouds
4:53 PM 89.1 °F 89.0 °F 61.0 °F 39% 30.10 in 10.0 mi NNW 4.6 mph - N/A   Scattered Clouds
5:53 PM 89.1 °F 88.8 °F 60.1 °F 38% 30.09 in 10.0 mi Variable 3.5 mph - N/A   Scattered Clouds
6:53 PM 87.1 °F 86.7 °F 60.1 °F 40% 30.08 in 10.0 mi North 3.5 mph - N/A   Mostly Cloudy
7:53 PM 84.9 °F 84.4 °F 59.0 °F 41% 30.08 in 10.0 mi West 4.6 mph - N/A   Clear
8:53 PM 79.0 °F - 64.9 °F 62% 30.08 in 10.0 mi South 10.4 mph - N/A   Mostly Cloudy
9:53 PM 78.1 °F - 64.9 °F 64% 30.09 in 10.0 mi Variable 3.5 mph - N/A   Mostly Cloudy
10:53 PM 77.0 °F - 66.0 °F 69% 30.10 in 10.0 mi Calm Calm - N/A   Overcast
11:53 PM 75.0 °F - 66.0 °F 73% 30.09 in 10.0 mi Calm Calm - N/A   Mostly Cloudy